Time,TemperatureF,DewpointF,PressureIn,WindDirection,WindDirectionDegrees,WindSpeedMPH,WindSpeedGustMPH,Humidity,HourlyPrecipIn,Conditions,Clouds,dailyrainin,SoftwareType,DateUTC
2013-02-26 00:04:00,31.3,30.8,30.44,NW,315,0.0,0.0,98,0.00,,---,0.00,VWS V14.01,2013-02-26 08:04:00,
2013-02-26 00:09:00,31.1,30.6,30.44,NW,315,0.0,0.0,98,0.00,,---,0.00,VWS V14.01,2013-02-26 08:09:00,
2013-02-26 00:14:00,30.9,30.4,30.41,NW,315,0.0,0.0,98,0.00,,---,0.00,VWS V14.01,2013-02-26 08:14:00,
2013-02-26 00:19:00,30.9,30.4,30.41,NW,315,0.0,0.0,98,0.00,,---,0.00,VWS V14.01,2013-02-26 08:19:00,
2013-02-26 00:24:00,31.1,30.6,30.41,NW,315,0.0,0.0,98,0.00,,---,0.00,VWS V14.01,2013-02-26 08:24:00,
2013-02-26 00:29:00,31.3,30.8,30.41,NNE,22,0.0,0.0,98,0.00,,---,0.00,VWS V14.01,2013-02-26 08:29:00,
2013-02-26 00:34:00,31.3,30.8,30.41,NNW,338,0.0,0.0,98,0.00,,---,0.00,VWS V14.01,2013-02-26 08:34:00,
2013-02-26 00:39:00,31.3,30.8,30.41,NNW,338,0.0,0.0,98,0.00,,---,0.00,VWS V14.01,2013-02-26 08:39:00,
2013-02-26 00:44:00,31.3,30.8,30.41,NW,315,0.0,0.0,98,0.00,,---,0.00,VWS V14.01,2013-02-26 08:44:00,
2013-02-26 00:50:00,31.3,30.8,30.41,NW,315,0.0,0.0,98,0.00,,---,0.00,VWS V14.01,2013-02-26 08:50:00,
2013-02-26 00:55:00,31.3,30.8,30.41,NW,315,0.0,0.0,98,0.00,,---,0.00,VWS V14.01,2013-02-26 08:55:00,
2013-02-26 01:00:00,31.3,30.8,30.41,NW,315,0.0,0.0,98,0.00,,---,0.00,VWS V14.01,2013-02-26 09:00:00,
2013-02-26 01:05:00,31.3,30.8,30.41,NW,315,0.0,0.0,98,0.00,,---,0.00,VWS V14.01,2013-02-26 09:05:00,
2013-02-26 01:10:00,31.1,30.6,30.41,NW,315,0.0,0.0,98,0.00,,---,0.00,VWS V14.01,2013-02-26 09:10:00,
2013-02-26 01:15:00,31.1,30.6,30.44,NW,315,0.0,0.0,98,0.00,,---,0.00,VWS V14.01,2013-02-26 09:15:00,
2013-02-26 01:20:00,31.1,30.6,30.44,NW,315,0.0,0.0,98,0.00,,---,0.00,VWS V14.01,2013-02-26 09:20:00,
2013-02-26 01:25:00,31.1,30.6,30.44,NNW,338,0.0,0.0,98,0.00,,---,0.00,VWS V14.01,2013-02-26 09:25:00,
2013-02-26 01:30:00,31.1,30.6,30.41,NNW,338,0.0,0.0,98,0.00,,---,0.00,VWS V14.01,2013-02-26 09:30:00,
2013-02-26 01:35:00,31.1,30.6,30.41,NNW,338,0.0,0.0,98,0.00,,---,0.00,VWS V14.01,2013-02-26 09:35:00,
2013-02-26 01:40:00,31.1,30.6,30.41,North,0,0.0,0.0,98,0.00,,---,0.00,VWS V14.01,2013-02-26 09:40:00,
2013-02-26 01:45:00,31.1,30.6,30.41,NW,315,0.0,0.0,98,0.00,,---,0.00,VWS V14.01,2013-02-26 09:45:00,
2013-02-26 01:50:00,30.9,30.4,30.41,NW,315,0.0,0.0,98,0.00,,---,0.00,VWS V14.01,2013-02-26 09:50:00,
2013-02-26 01:55:00,30.9,30.4,30.41,NW,315,0.0,0.0,98,0.00,,---,0.00,VWS V14.01,2013-02-26 09:55:00,
2013-02-26 02:00:00,30.7,30.2,30.41,NW,315,0.0,0.0,98,0.00,,---,0.00,VWS V14.01,2013-02-26 10:00:00,
2013-02-26 02:05:00,30.6,30.1,30.41,NW,315,0.0,0.0,98,0.00,,---,0.00,VWS V14.01,2013-02-26 10:05:00,
2013-02-26 02:10:00,30.6,30.1,30.41,NW,315,0.0,0.0,98,0.00,,---,0.00,VWS V14.01,2013-02-26 10:10:00,
2013-02-26 02:15:00,30.6,30.1,30.41,NW,315,0.0,0.0,98,0.00,,---,0.00,VWS V14.01,2013-02-26 10:15:00,
2013-02-26 02:20:00,30.9,30.4,30.41,NW,315,0.0,0.0,98,0.00,,---,0.00,VWS V14.01,2013-02-26 10:20:00,
2013-02-26 02:25:00,30.9,30.4,30.41,NW,315,0.0,0.0,98,0.00,,---,0.00,VWS V14.01,2013-02-26 10:25:00,
2013-02-26 02:30:00,31.1,30.6,30.41,NW,315,0.0,0.0,98,0.00,,---,0.00,VWS V14.01,2013-02-26 10:30:00,
2013-02-26 02:35:00,31.1,30.6,30.41,NW,315,0.0,0.0,98,0.00,,---,0.00,VWS V14.01,2013-02-26 10:35:00,
2013-02-26 02:40:00,31.1,30.6,30.41,NW,315,0.0,0.0,98,0.00,,---,0.00,VWS V14.01,2013-02-26 10:40:00,
2013-02-26 02:45:00,31.3,30.8,30.41,NW,315,0.0,0.0,98,0.00,,---,0.00,VWS V14.01,2013-02-26 10:45:00,
2013-02-26 02:50:00,31.5,31.0,30.41,NW,315,0.0,0.0,98,0.00,,---,0.00,VWS V14.01,2013-02-26 10:50:00,
2013-02-26 02:55:00,31.5,31.0,30.41,NW,315,0.0,0.0,98,0.00,,---,0.00,VWS V14.01,2013-02-26 10:55:00,
2013-02-26 03:00:00,31.5,31.0,30.41,NW,315,0.0,0.0,98,0.00,,---,0.00,VWS V14.01,2013-02-26 11:00:00,
2013-02-26 03:05:00,31.5,31.0,30.41,NW,315,0.0,0.0,98,0.00,,---,0.00,VWS V14.01,2013-02-26 11:05:00,
2013-02-26 03:10:00,31.3,30.8,30.41,NW,315,0.0,0.0,98,0.00,,---,0.00,VWS V14.01,2013-02-26 11:10:00,
2013-02-26 03:15:00,31.3,30.8,30.41,NW,315,0.0,0.0,98,0.00,,---,0.00,VWS V14.01,2013-02-26 11:15:00,
2013-02-26 03:20:00,31.3,30.8,30.41,NW,315,0.0,0.0,98,0.00,,---,0.00,VWS V14.01,2013-02-26 11:20:00,
2013-02-26 03:25:00,31.3,30.8,30.41,NW,315,0.0,0.0,98,0.00,,---,0.00,VWS V14.01,2013-02-26 11:25:00,
2013-02-26 03:30:00,31.3,30.8,30.41,NW,315,0.0,0.0,98,0.00,,---,0.00,VWS V14.01,2013-02-26 11:30:00,
2013-02-26 03:35:00,31.1,30.6,30.41,NW,315,0.0,0.0,98,0.00,,---,0.00,VWS V14.01,2013-02-26 11:35:00,
2013-02-26 03:40:00,31.1,30.6,30.41,NW,315,0.0,0.0,98,0.00,,---,0.00,VWS V14.01,2013-02-26 11:40:00,
2013-02-26 03:45:00,30.9,30.4,30.39,NW,315,0.0,0.0,98,0.00,,---,0.00,VWS V14.01,2013-02-26 11:45:00,
2013-02-26 03:50:00,30.9,30.4,30.39,NW,315,0.0,0.0,98,0.00,,---,0.00,VWS V14.01,2013-02-26 11:50:00,
2013-02-26 03:55:00,30.9,30.4,30.39,NW,315,0.0,0.0,98,0.00,,---,0.00,VWS V14.01,2013-02-26 11:55:00,
2013-02-26 04:00:00,30.7,30.2,30.39,NW,315,0.0,0.0,98,0.00,,---,0.00,VWS V14.01,2013-02-26 12:00:00,
2013-02-26 04:05:00,30.6,30.1,30.39,NW,315,0.0,0.0,98,0.00,,---,0.00,VWS V14.01,2013-02-26 12:05:00,
2013-02-26 04:10:00,30.4,29.9,30.39,NW,315,0.0,0.0,98,0.00,,---,0.00,VWS V14.01,2013-02-26 12:10:00,
2013-02-26 04:15:00,30.2,29.7,30.41,NW,315,0.0,0.0,98,0.00,,---,0.00,VWS V14.01,2013-02-26 12:15:00,
2013-02-26 04:20:00,30.2,29.7,30.41,NW,315,0.0,0.0,98,0.00,,---,0.00,VWS V14.01,2013-02-26 12:20:00,
2013-02-26 04:25:00,30.2,29.7,30.41,NW,315,0.0,0.0,98,0.00,,---,0.00,VWS V14.01,2013-02-26 12:25:00,
2013-02-26 04:30:00,30.2,29.7,30.41,NW,315,0.0,0.0,98,0.00,,---,0.00,VWS V14.01,2013-02-26 12:30:00,
2013-02-26 04:35:00,30.2,29.7,30.41,NW,315,0.0,0.0,98,0.00,,---,0.00,VWS V14.01,2013-02-26 12:35:00,
2013-02-26 04:40:00,30.4,29.9,30.41,NW,315,0.0,0.0,98,0.00,,---,0.00,VWS V14.01,2013-02-26 12:40:00,
2013-02-26 04:45:00,30.4,29.9,30.41,NW,315,0.0,0.0,98,0.00,,---,0.00,VWS V14.01,2013-02-26 12:45:00,
2013-02-26 04:50:00,30.6,30.1,30.41,NW,315,0.0,0.0,98,0.00,,---,0.00,VWS V14.01,2013-02-26 12:50:00,
2013-02-26 04:55:00,30.6,30.1,30.41,NW,315,0.0,0.0,98,0.00,,---,0.00,VWS V14.01,2013-02-26 12:55:00,
2013-02-26 05:00:00,30.6,30.1,30.44,NW,315,0.0,0.0,98,0.00,,---,0.00,VWS V14.01,2013-02-26 13:00:00,
2013-02-26 05:05:00,30.6,30.1,30.44,NW,315,0.0,0.0,98,0.00,,---,0.00,VWS V14.01,2013-02-26 13:05:00,
2013-02-26 05:11:00,30.7,30.2,30.44,NW,315,0.0,0.0,98,0.00,,---,0.00,VWS V14.01,2013-02-26 13:11:00,
2013-02-26 05:16:00,30.7,30.2,30.44,NW,315,0.0,0.0,98,0.00,,---,0.00,VWS V14.01,2013-02-26 13:16:00,
2013-02-26 05:21:00,30.9,30.4,30.44,NW,315,0.0,0.0,98,0.00,,---,0.00,VWS V14.01,2013-02-26 13:21:00,
2013-02-26 05:26:00,30.9,30.4,30.44,NW,315,0.0,0.0,98,0.00,,---,0.00,VWS V14.01,2013-02-26 13:26:00,
2013-02-26 05:31:00,31.1,30.6,30.44,NW,315,0.0,0.0,98,0.00,,---,0.00,VWS V14.01,2013-02-26 13:31:00,
2013-02-26 05:36:00,31.1,30.6,30.44,NW,315,0.0,0.0,98,0.00,,---,0.00,VWS V14.01,2013-02-26 13:36:00,
2013-02-26 05:41:00,31.3,30.8,30.44,NW,315,0.0,0.0,98,0.00,,---,0.00,VWS V14.01,2013-02-26 13:41:00,
2013-02-26 05:46:00,31.3,30.8,30.44,NW,315,0.0,0.0,98,0.00,,---,0.00,VWS V14.01,2013-02-26 13:46:00,
2013-02-26 05:51:00,31.5,31.0,30.44,NW,315,0.0,0.0,98,0.00,,---,0.00,VWS V14.01,2013-02-26 13:51:00,
2013-02-26 05:56:00,31.6,31.1,30.44,NW,315,0.0,0.0,98,0.00,,---,0.00,VWS V14.01,2013-02-26 13:56:00,
2013-02-26 06:01:00,31.6,31.1,30.44,NW,315,0.0,0.0,98,0.00,,---,0.00,VWS V14.01,2013-02-26 14:01:00,
2013-02-26 06:06:00,31.6,31.1,30.44,NW,315,0.0,0.0,98,0.00,,---,0.00,VWS V14.01,2013-02-26 14:06:00,
2013-02-26 06:11:00,31.6,31.1,30.44,NW,315,0.0,0.0,98,0.00,,---,0.00,VWS V14.01,2013-02-26 14:11:00,
2013-02-26 06:16:00,31.6,31.1,30.44,NW,315,0.0,0.0,98,0.00,,---,0.00,VWS V14.01,2013-02-26 14:16:00,
2013-02-26 06:21:00,31.5,31.0,30.44,NNW,338,0.0,0.0,98,0.00,,---,0.00,VWS V14.01,2013-02-26 14:21:00,
2013-02-26 06:26:00,31.5,31.0,30.44,NNW,338,0.0,0.0,98,0.00,,---,0.00,VWS V14.01,2013-02-26 14:26:00,
2013-02-26 06:31:00,31.3,30.8,30.41,NW,315,0.0,0.0,98,0.00,,---,0.00,VWS V14.01,2013-02-26 14:31:00,
2013-02-26 06:37:00,31.3,30.8,30.41,West,270,0.0,0.0,98,0.00,,---,0.00,VWS V14.01,2013-02-26 14:37:00,
2013-02-26 06:42:00,31.1,30.6,30.41,West,270,0.0,0.0,98,0.00,,---,0.00,VWS V14.01,2013-02-26 14:42:00,
2013-02-26 06:47:00,31.1,30.6,30.41,West,270,0.0,0.0,98,0.00,,---,0.00,VWS V14.01,2013-02-26 14:47:00,
2013-02-26 06:52:00,31.3,30.8,30.41,West,270,0.0,0.0,98,0.00,,---,0.00,VWS V14.01,2013-02-26 14:52:00,
2013-02-26 06:57:00,31.3,30.8,30.44,West,270,0.0,0.0,98,0.00,,---,0.00,VWS V14.01,2013-02-26 14:57:00,
2013-02-26 07:02:00,31.5,31.0,30.44,West,270,0.0,0.0,98,0.00,,---,0.00,VWS V14.01,2013-02-26 15:02:00,
2013-02-26 07:07:00,31.5,31.0,30.44,West,270,0.0,0.0,98,0.00,,---,0.00,VWS V14.01,2013-02-26 15:07:00,
2013-02-26 07:12:00,31.6,31.1,30.44,West,270,0.0,0.0,98,0.00,,---,0.00,VWS V14.01,2013-02-26 15:12:00,
2013-02-26 07:17:00,31.8,31.3,30.44,NW,315,0.0,0.0,98,0.00,,---,0.00,VWS V14.01,2013-02-26 15:17:00,
2013-02-26 07:22:00,31.8,31.3,30.44,NW,315,0.0,0.0,98,0.00,,---,0.00,VWS V14.01,2013-02-26 15:22:00,
2013-02-26 07:27:00,32.0,31.5,30.41,NW,315,0.0,0.0,98,0.00,,---,0.00,VWS V14.01,2013-02-26 15:27:00,
2013-02-26 07:32:00,32.2,31.7,30.41,NW,315,0.0,0.0,98,0.00,,---,0.00,VWS V14.01,2013-02-26 15:32:00,
2013-02-26 07:37:00,32.2,31.7,30.41,NW,315,0.0,0.0,98,0.00,,---,0.00,VWS V14.01,2013-02-26 15:37:00,
2013-02-26 07:43:00,32.2,31.7,30.39,North,0,0.0,0.0,98,0.00,,---,0.00,VWS V14.01,2013-02-26 15:43:00,
2013-02-26 07:48:00,32.4,31.9,30.39,North,0,0.0,0.0,98,0.00,,---,0.00,VWS V14.01,2013-02-26 15:48:00,
2013-02-26 07:53:00,32.5,32.0,30.39,NNW,338,0.0,0.0,98,0.00,,---,0.00,VWS V14.01,2013-02-26 15:53:00,
2013-02-26 07:58:00,32.5,32.0,30.41,NW,315,0.0,0.0,98,0.00,,---,0.00,VWS V14.01,2013-02-26 15:58:00,
2013-02-26 08:03:00,32.7,32.2,30.41,ESE,112,0.0,0.0,98,0.00,,---,0.00,VWS V14.01,2013-02-26 16:03:00,
2013-02-26 08:08:00,32.7,32.2,30.41,SSE,158,0.0,0.0,98,0.00,,---,0.00,VWS V14.01,2013-02-26 16:08:00,
2013-02-26 08:13:00,32.7,32.2,30.41,SSW,202,0.0,0.0,98,0.00,,---,0.00,VWS V14.01,2013-02-26 16:13:00,
2013-02-26 08:18:00,32.9,32.4,30.41,South,180,0.0,0.0,98,0.00,,---,0.00,VWS V14.01,2013-02-26 16:18:00,
2013-02-26 08:23:00,33.1,32.6,30.41,South,180,0.0,0.0,98,0.00,,---,0.00,VWS V14.01,2013-02-26 16:23:00,
2013-02-26 08:28:00,33.3,32.8,30.41,South,180,0.0,0.0,98,0.00,,---,0.00,VWS V14.01,2013-02-26 16:28:00,
2013-02-26 08:33:00,33.3,32.8,30.41,South,180,0.0,0.0,98,0.00,,---,0.00,VWS V14.01,2013-02-26 16:33:00,
2013-02-26 08:38:00,33.4,32.9,30.41,SSW,202,0.0,0.0,98,0.00,,---,0.00,VWS V14.01,2013-02-26 16:38:00,
2013-02-26 08:43:00,33.6,33.1,30.41,SSW,202,0.0,0.0,98,0.00,,---,0.00,VWS V14.01,2013-02-26 16:43:00,
2013-02-26 08:48:00,34.0,33.5,30.41,SSW,202,0.0,0.0,98,0.00,,---,0.00,VWS V14.01,2013-02-26 16:48:00,
2013-02-26 08:53:00,34.3,33.8,30.41,SSW,202,0.0,0.0,98,0.00,,---,0.00,VWS V14.01,2013-02-26 16:53:00,
2013-02-26 08:58:00,34.3,33.8,30.44,South,180,0.0,0.0,98,0.00,,---,0.00,VWS V14.01,2013-02-26 16:58:00,
2013-02-26 09:03:00,34.5,34.0,30.44,NE,45,0.0,0.0,98,0.00,,---,0.00,VWS V14.01,2013-02-26 17:03:00,
2013-02-26 09:09:00,34.9,34.4,30.44,SSW,202,0.0,0.0,98,0.00,,---,0.00,VWS V14.01,2013-02-26 17:09:00,
2013-02-26 09:14:00,35.4,34.9,30.41,West,270,0.0,0.0,98,0.00,,---,0.00,VWS V14.01,2013-02-26 17:14:00,
2013-02-26 09:19:00,35.8,35.3,30.41,WNW,292,0.0,0.0,98,0.00,,---,0.00,VWS V14.01,2013-02-26 17:19:00,
2013-02-26 09:24:00,35.6,35.1,30.41,SSE,158,0.0,0.9,98,0.00,,---,0.00,VWS V14.01,2013-02-26 17:24:00,
2013-02-26 09:29:00,35.6,35.1,30.41,SSE,158,0.0,0.0,98,0.04,,---,0.04,VWS V14.01,2013-02-26 17:29:00,
2013-02-26 09:34:00,35.8,35.3,30.41,North,0,0.0,2.2,98,0.04,,---,0.04,VWS V14.01,2013-02-26 17:34:00,
2013-02-26 09:39:00,35.8,35.3,30.41,NNE,22,0.0,0.0,98,0.04,,---,0.04,VWS V14.01,2013-02-26 17:39:00,
2013-02-26 09:44:00,36.1,35.6,30.41,North,0,0.0,0.0,98,0.04,,---,0.04,VWS V14.01,2013-02-26 17:44:00,
2013-02-26 09:49:00,36.7,36.2,30.41,North,0,0.0,0.0,98,0.04,,---,0.04,VWS V14.01,2013-02-26 17:49:00,
2013-02-26 09:55:00,37.9,37.4,30.41,SSE,158,0.0,1.6,98,0.04,,---,0.04,VWS V14.01,2013-02-26 17:55:00,
2013-02-26 10:00:00,38.8,38.3,30.39,East,90,0.0,0.0,98,0.04,,---,0.04,VWS V14.01,2013-02-26 18:00:00,
2013-02-26 10:05:00,39.7,39.2,30.39,SSE,158,0.9,0.9,98,0.04,,---,0.04,VWS V14.01,2013-02-26 18:05:00,
2013-02-26 10:10:00,39.4,38.9,30.39,South,180,1.1,1.1,98,0.04,,---,0.04,VWS V14.01,2013-02-26 18:10:00,
2013-02-26 10:15:00,39.2,38.7,30.39,SW,225,0.0,0.0,98,0.04,,---,0.04,VWS V14.01,2013-02-26 18:15:00,
2013-02-26 10:20:00,38.8,38.3,30.39,South,180,0.0,0.0,98,0.04,,---,0.04,VWS V14.01,2013-02-26 18:20:00,
2013-02-26 10:25:00,38.7,38.2,30.39,SSW,202,0.0,0.0,98,0.04,,---,0.04,VWS V14.01,2013-02-26 18:25:00,
2013-02-26 10:30:00,38.7,38.2,30.39,South,180,0.0,0.0,98,0.00,,---,0.04,VWS V14.01,2013-02-26 18:30:00,
2013-02-26 10:35:00,38.8,38.3,30.39,South,180,1.1,1.3,98,0.00,,---,0.04,VWS V14.01,2013-02-26 18:35:00,
2013-02-26 10:40:00,38.7,38.2,30.39,SSW,202,0.0,0.0,98,0.00,,---,0.04,VWS V14.01,2013-02-26 18:40:00,
2013-02-26 10:45:00,38.5,38.0,30.39,SSW,202,0.0,0.0,98,0.00,,---,0.04,VWS V14.01,2013-02-26 18:45:00,
2013-02-26 10:50:00,38.8,38.3,30.39,SSE,158,0.0,0.0,98,0.00,,---,0.04,VWS V14.01,2013-02-26 18:50:00,
2013-02-26 10:56:00,39.9,39.4,30.39,South,180,0.9,0.9,98,0.00,,---,0.04,VWS V14.01,2013-02-26 18:56:00,
2013-02-26 11:01:00,41.2,40.7,30.39,SSE,158,0.0,0.0,98,0.00,,---,0.04,VWS V14.01,2013-02-26 19:01:00,
2013-02-26 11:06:00,41.9,41.4,30.39,SSW,202,1.6,1.6,98,0.00,,---,0.04,VWS V14.01,2013-02-26 19:06:00,
2013-02-26 11:11:00,42.1,41.6,30.39,SSE,158,0.0,1.6,98,0.00,,---,0.04,VWS V14.01,2013-02-26 19:11:00,
2013-02-26 11:16:00,43.7,43.2,30.39,SSE,158,0.0,0.0,98,0.00,,---,0.04,VWS V14.01,2013-02-26 19:16:00,
2013-02-26 11:21:00,45.0,44.2,30.39,ESE,112,2.0,2.0,97,0.00,,---,0.04,VWS V14.01,2013-02-26 19:21:00,
2013-02-26 11:26:00,45.0,43.1,30.39,SSE,158,2.9,2.9,93,0.00,,---,0.04,VWS V14.01,2013-02-26 19:26:00,
2013-02-26 11:31:00,45.3,41.4,30.39,South,180,0.0,0.0,86,0.00,,---,0.04,VWS V14.01,2013-02-26 19:31:00,
2013-02-26 11:36:00,46.2,42.3,30.39,SSE,158,0.0,0.0,86,0.00,,---,0.04,VWS V14.01,2013-02-26 19:36:00,
2013-02-26 11:41:00,46.9,43.0,30.39,WSW,248,0.0,0.0,86,0.00,,---,0.04,VWS V14.01,2013-02-26 19:41:00,
2013-02-26 11:46:00,46.4,41.8,30.39,SSW,202,0.0,0.0,84,0.00,,---,0.04,VWS V14.01,2013-02-26 19:46:00,
2013-02-26 11:51:00,46.8,41.6,30.39,SSW,202,0.0,0.9,82,0.00,,---,0.04,VWS V14.01,2013-02-26 19:51:00,
2013-02-26 11:56:00,47.3,41.8,30.39,SSW,202,0.0,1.3,81,0.00,,---,0.04,VWS V14.01,2013-02-26 19:56:00,
2013-02-26 12:02:00,48.0,41.8,30.41,SSW,202,2.7,2.7,79,0.00,,---,0.04,VWS V14.01,2013-02-26 20:02:00,
2013-02-26 12:07:00,49.1,42.9,30.41,West,270,0.0,0.9,79,0.00,,---,0.04,VWS V14.01,2013-02-26 20:07:00,
2013-02-26 12:12:00,50.2,43.6,30.41,ENE,68,0.9,3.1,78,0.00,,---,0.04,VWS V14.01,2013-02-26 20:12:00,
2013-02-26 12:17:00,50.0,42.0,30.36,ENE,68,0.0,2.5,74,0.00,,---,0.04,VWS V14.01,2013-02-26 20:17:00,
2013-02-26 12:22:00,50.4,42.0,30.36,South,180,2.0,3.1,73,0.00,,---,0.04,VWS V14.01,2013-02-26 20:22:00,
2013-02-26 12:27:00,51.3,42.9,30.36,South,180,0.0,0.0,73,0.00,,---,0.04,VWS V14.01,2013-02-26 20:27:00,
2013-02-26 12:32:00,51.4,42.7,30.36,West,270,0.0,3.1,72,0.00,,---,0.04,VWS V14.01,2013-02-26 20:32:00,
2013-02-26 12:37:00,51.3,37.4,30.36,SE,135,3.6,3.6,59,0.00,,---,0.04,VWS V14.01,2013-02-26 20:37:00,
2013-02-26 12:42:00,51.1,36.8,30.33,NNE,22,3.8,4.3,58,0.00,,---,0.04,VWS V14.01,2013-02-26 20:42:00,
2013-02-26 12:47:00,51.3,35.7,30.33,SW,225,2.5,2.9,55,0.00,,---,0.04,VWS V14.01,2013-02-26 20:47:00,
2013-02-26 12:52:00,51.3,36.1,30.33,NNW,338,1.1,1.1,56,0.00,,---,0.04,VWS V14.01,2013-02-26 20:52:00,
2013-02-26 12:57:00,51.3,34.7,30.33,WSW,248,2.2,2.9,53,0.00,,---,0.04,VWS V14.01,2013-02-26 20:57:00,
2013-02-26 13:02:00,51.8,35.7,30.33,WNW,292,1.1,3.1,54,0.00,,---,0.04,VWS V14.01,2013-02-26 21:02:00,
2013-02-26 13:08:00,51.6,33.6,30.33,NNE,22,2.9,4.0,50,0.00,,---,0.04,VWS V14.01,2013-02-26 21:08:00,
2013-02-26 13:13:00,50.5,33.6,30.33,SSE,158,2.9,2.9,52,0.00,,---,0.04,VWS V14.01,2013-02-26 21:13:00,
2013-02-26 13:18:00,50.2,31.8,30.33,WNW,292,3.1,3.1,49,0.00,,---,0.04,VWS V14.01,2013-02-26 21:18:00,
2013-02-26 13:23:00,50.0,33.6,30.33,North,0,2.7,3.8,53,0.00,,---,0.04,VWS V14.01,2013-02-26 21:23:00,
2013-02-26 13:28:00,48.2,30.9,30.30,SE,135,2.7,3.4,51,0.00,,---,0.04,VWS V14.01,2013-02-26 21:28:00,
2013-02-26 13:33:00,48.6,32.7,30.30,SSW,202,2.5,2.5,54,0.00,,---,0.04,VWS V14.01,2013-02-26 21:33:00,
2013-02-26 13:38:00,48.4,33.9,30.30,SSW,202,1.3,1.6,57,0.00,,---,0.04,VWS V14.01,2013-02-26 21:38:00,
2013-02-26 13:43:00,48.4,34.3,30.33,SW,225,5.6,5.6,58,0.00,,---,0.04,VWS V14.01,2013-02-26 21:43:00,
2013-02-26 13:48:00,47.8,33.4,30.33,SW,225,4.3,4.3,57,0.00,,---,0.04,VWS V14.01,2013-02-26 21:48:00,
2013-02-26 13:53:00,47.5,31.7,30.33,West,270,2.0,2.0,54,0.00,,---,0.04,VWS V14.01,2013-02-26 21:53:00,
2013-02-26 13:58:00,47.3,31.5,30.33,SSW,202,3.4,3.4,54,0.00,,---,0.04,VWS V14.01,2013-02-26 21:58:00,
2013-02-26 14:03:00,47.3,32.4,30.33,SW,225,2.0,2.2,56,0.00,,---,0.04,VWS V14.01,2013-02-26 22:03:00,
2013-02-26 14:08:00,47.1,32.2,30.33,SSW,202,2.9,2.9,56,0.00,,---,0.04,VWS V14.01,2013-02-26 22:08:00,
2013-02-26 14:13:00,46.9,31.2,30.33,ESE,112,2.7,4.0,54,0.00,,---,0.04,VWS V14.01,2013-02-26 22:13:00,
2013-02-26 14:18:00,47.1,32.2,30.33,SSE,158,1.1,3.1,56,0.00,,---,0.04,VWS V14.01,2013-02-26 22:18:00,
2013-02-26 14:23:00,47.3,32.4,30.33,SSE,158,3.6,4.9,56,0.00,,---,0.04,VWS V14.01,2013-02-26 22:23:00,
2013-02-26 14:28:00,47.1,32.2,30.33,NNW,338,3.1,3.8,56,0.00,,---,0.04,VWS V14.01,2013-02-26 22:28:00,
2013-02-26 14:34:00,46.4,32.4,30.33,SW,225,0.0,0.0,58,0.00,,---,0.04,VWS V14.01,2013-02-26 22:34:00,
2013-02-26 14:39:00,46.2,33.1,30.33,West,270,2.7,3.1,60,0.00,,---,0.04,VWS V14.01,2013-02-26 22:39:00,
2013-02-26 14:44:00,45.9,33.6,30.33,West,270,0.0,0.0,62,0.00,,---,0.04,VWS V14.01,2013-02-26 22:44:00,
2013-02-26 14:49:00,45.3,32.3,30.33,West,270,2.5,2.9,60,0.00,,---,0.04,VWS V14.01,2013-02-26 22:49:00,
2013-02-26 14:54:00,45.3,33.5,30.33,SW,225,0.0,2.2,63,0.00,,---,0.04,VWS V14.01,2013-02-26 22:54:00,
2013-02-26 14:59:00,46.0,34.6,30.33,West,270,2.0,2.7,64,0.00,,---,0.04,VWS V14.01,2013-02-26 22:59:00,
2013-02-26 15:04:00,46.9,35.8,30.33,SSW,202,2.9,2.9,65,0.00,,---,0.04,VWS V14.01,2013-02-26 23:04:00,
2013-02-26 15:09:00,46.4,34.5,30.33,South,180,0.0,1.1,63,0.00,,---,0.04,VWS V14.01,2013-02-26 23:09:00,
2013-02-26 15:14:00,46.4,34.9,30.33,West,270,2.2,2.2,64,0.00,,---,0.04,VWS V14.01,2013-02-26 23:14:00,
2013-02-26 15:19:00,46.6,35.1,30.33,SSW,202,2.7,2.7,64,0.00,,---,0.04,VWS V14.01,2013-02-26 23:19:00,
2013-02-26 15:24:00,46.2,34.7,30.33,SSW,202,1.1,1.1,64,0.00,,---,0.04,VWS V14.01,2013-02-26 23:24:00,
2013-02-26 15:29:00,46.2,35.1,30.33,SW,225,0.0,0.0,65,0.00,,---,0.04,VWS V14.01,2013-02-26 23:29:00,
2013-02-26 15:34:00,46.2,35.1,30.33,SW,225,0.0,0.9,65,0.00,,---,0.04,VWS V14.01,2013-02-26 23:34:00,
2013-02-26 15:39:00,46.0,35.0,30.33,SW,225,0.0,0.0,65,0.00,,---,0.04,VWS V14.01,2013-02-26 23:39:00,
2013-02-26 15:44:00,45.5,34.4,30.33,WSW,248,0.9,1.1,65,0.00,,---,0.04,VWS V14.01,2013-02-26 23:44:00,
2013-02-26 15:49:00,45.3,34.6,30.33,South,180,0.0,0.9,66,0.00,,---,0.04,VWS V14.01,2013-02-26 23:49:00,
2013-02-26 15:54:00,45.3,34.6,30.33,West,270,0.0,0.0,66,0.00,,---,0.04,VWS V14.01,2013-02-26 23:54:00,
2013-02-26 16:00:00,45.1,34.8,30.33,SW,225,1.3,3.1,67,0.00,,---,0.04,VWS V14.01,2013-02-27 00:00:00,
2013-02-26 16:05:00,44.8,34.5,30.33,SW,225,0.0,0.0,67,0.00,,---,0.04,VWS V14.01,2013-02-27 00:05:00,
2013-02-26 16:10:00,44.6,34.7,30.33,West,270,0.0,0.0,68,0.00,,---,0.04,VWS V14.01,2013-02-27 00:10:00,
2013-02-26 16:15:00,44.4,35.3,30.33,West,270,0.0,0.0,70,0.00,,---,0.04,VWS V14.01,2013-02-27 00:15:00,
2013-02-26 16:20:00,44.2,35.5,30.33,West,270,0.0,0.0,71,0.00,,---,0.04,VWS V14.01,2013-02-27 00:20:00,
2013-02-26 16:25:00,44.1,35.3,30.33,West,270,0.0,0.0,71,0.00,,---,0.04,VWS V14.01,2013-02-27 00:25:00,
2013-02-26 16:30:00,43.9,35.1,30.33,SSW,202,0.0,0.0,71,0.00,,---,0.04,VWS V14.01,2013-02-27 00:30:00,
2013-02-26 16:35:00,44.1,35.6,30.33,WSW,248,0.0,0.0,72,0.00,,---,0.04,VWS V14.01,2013-02-27 00:35:00,
2013-02-26 16:40:00,44.1,35.6,30.33,SW,225,1.1,2.0,72,0.00,,---,0.04,VWS V14.01,2013-02-27 00:40:00,
2013-02-26 16:45:00,44.1,35.3,30.33,WSW,248,0.0,0.0,71,0.00,,---,0.04,VWS V14.01,2013-02-27 00:45:00,
2013-02-26 16:50:00,43.9,35.1,30.33,WSW,248,0.0,0.0,71,0.00,,---,0.04,VWS V14.01,2013-02-27 00:50:00,
2013-02-26 16:55:00,43.7,34.6,30.33,West,270,0.0,0.0,70,0.00,,---,0.04,VWS V14.01,2013-02-27 00:55:00,
2013-02-26 17:00:00,43.7,34.6,30.33,West,270,0.0,0.0,70,0.00,,---,0.04,VWS V14.01,2013-02-27 01:00:00,
2013-02-26 17:05:00,43.5,34.8,30.33,SW,225,0.0,0.0,71,0.00,,---,0.04,VWS V14.01,2013-02-27 01:05:00,
2013-02-26 17:10:00,43.3,34.6,30.33,SSE,158,0.0,0.0,71,0.00,,---,0.04,VWS V14.01,2013-02-27 01:10:00,
2013-02-26 17:15:00,43.2,34.8,30.30,SSE,158,0.0,0.0,72,0.00,,---,0.04,VWS V14.01,2013-02-27 01:15:00,
2013-02-26 17:20:00,43.0,34.6,30.30,SSE,158,0.0,0.0,72,0.00,,---,0.04,VWS V14.01,2013-02-27 01:20:00,
2013-02-26 17:25:00,43.0,34.9,30.30,NNW,338,0.0,0.0,73,0.00,,---,0.04,VWS V14.01,2013-02-27 01:25:00,
2013-02-26 17:30:00,42.6,34.6,30.30,ENE,68,0.0,0.0,73,0.00,,---,0.04,VWS V14.01,2013-02-27 01:30:00,
2013-02-26 17:36:00,42.4,34.8,30.30,ENE,68,0.0,0.0,74,0.00,,---,0.04,VWS V14.01,2013-02-27 01:36:00,
2013-02-26 17:41:00,42.3,34.9,30.30,SW,225,0.0,0.0,75,0.00,,---,0.04,VWS V14.01,2013-02-27 01:41:00,
2013-02-26 17:46:00,42.1,35.4,30.27,WSW,248,0.0,0.0,77,0.00,,---,0.04,VWS V14.01,2013-02-27 01:46:00,
2013-02-26 17:51:00,41.9,35.2,30.27,SSW,202,0.0,0.0,77,0.00,,---,0.04,VWS V14.01,2013-02-27 01:51:00,
2013-02-26 17:56:00,41.9,35.2,30.27,SSW,202,0.0,0.0,77,0.00,,---,0.04,VWS V14.01,2013-02-27 01:56:00,
2013-02-26 18:01:00,41.7,35.0,30.27,SSW,202,0.0,0.0,77,0.00,,---,0.04,VWS V14.01,2013-02-27 02:01:00,
2013-02-26 18:06:00,41.7,35.0,30.27,SSW,202,0.0,0.0,77,0.00,,---,0.04,VWS V14.01,2013-02-27 02:06:00,
2013-02-26 18:11:00,41.7,35.0,30.27,SSW,202,0.0,0.0,77,0.00,,---,0.04,VWS V14.01,2013-02-27 02:11:00,
2013-02-26 18:17:00,41.5,34.9,30.27,SSW,202,0.0,0.0,77,0.00,,---,0.04,VWS V14.01,2013-02-27 02:17:00,
2013-02-26 18:22:00,41.5,34.9,30.27,West,270,0.0,2.5,77,0.00,,---,0.04,VWS V14.01,2013-02-27 02:22:00,
2013-02-26 18:27:00,41.5,34.9,30.24,West,270,0.0,0.0,77,0.00,,---,0.04,VWS V14.01,2013-02-27 02:27:00,
2013-02-26 18:32:00,41.4,34.7,30.24,West,270,0.0,0.0,77,0.00,,---,0.04,VWS V14.01,2013-02-27 02:32:00,
2013-02-26 18:37:00,41.4,35.0,30.24,West,270,0.0,0.0,78,0.00,,---,0.04,VWS V14.01,2013-02-27 02:37:00,
2013-02-26 18:42:00,41.2,34.8,30.27,West,270,0.0,0.0,78,0.00,,---,0.04,VWS V14.01,2013-02-27 02:42:00,
2013-02-26 18:47:00,41.2,34.8,30.27,West,270,0.0,0.0,78,0.00,,---,0.04,VWS V14.01,2013-02-27 02:47:00,
2013-02-26 18:53:00,41.2,34.8,30.27,South,180,0.0,0.0,78,0.00,,---,0.04,VWS V14.01,2013-02-27 02:53:00,
2013-02-26 18:58:00,41.2,34.8,30.27,South,180,0.0,0.0,78,0.00,,---,0.04,VWS V14.01,2013-02-27 02:58:00,
2013-02-26 19:03:00,41.0,35.0,30.27,South,180,0.0,0.0,79,0.00,,---,0.04,VWS V14.01,2013-02-27 03:03:00,
2013-02-26 19:08:00,41.0,35.0,30.27,South,180,0.0,0.0,79,0.00,,---,0.04,VWS V14.01,2013-02-27 03:08:00,
2013-02-26 19:13:00,41.0,35.0,30.27,South,180,0.0,0.0,79,0.00,,---,0.04,VWS V14.01,2013-02-27 03:13:00,
2013-02-26 19:18:00,41.0,35.0,30.27,South,180,0.0,0.0,79,0.00,,---,0.04,VWS V14.01,2013-02-27 03:18:00,
2013-02-26 19:23:00,41.0,35.3,30.27,South,180,0.0,0.0,80,0.00,,---,0.04,VWS V14.01,2013-02-27 03:23:00,
2013-02-26 19:28:00,40.6,35.0,30.27,South,180,0.0,0.0,80,0.00,,---,0.04,VWS V14.01,2013-02-27 03:28:00,
2013-02-26 19:33:00,40.6,35.3,30.27,South,180,0.0,0.0,81,0.00,,---,0.04,VWS V14.01,2013-02-27 03:33:00,
2013-02-26 19:39:00,40.5,35.1,30.27,South,180,0.0,0.0,81,0.00,,---,0.04,VWS V14.01,2013-02-27 03:39:00,
2013-02-26 19:44:00,40.3,35.2,30.27,South,180,0.0,0.0,82,0.00,,---,0.04,VWS V14.01,2013-02-27 03:44:00,
2013-02-26 19:49:00,40.3,35.2,30.27,South,180,0.0,0.0,82,0.00,,---,0.04,VWS V14.01,2013-02-27 03:49:00,
2013-02-26 19:54:00,40.3,35.5,30.27,South,180,0.0,0.0,83,0.00,,---,0.04,VWS V14.01,2013-02-27 03:54:00,
2013-02-26 19:59:00,40.3,35.5,30.27,South,180,0.0,0.0,83,0.00,,---,0.04,VWS V14.01,2013-02-27 03:59:00,
2013-02-26 20:04:00,40.3,35.5,30.27,South,180,0.0,0.0,83,0.00,,---,0.04,VWS V14.01,2013-02-27 04:04:00,
2013-02-26 20:09:00,40.1,35.7,30.27,South,180,0.0,0.0,84,0.00,,---,0.04,VWS V14.01,2013-02-27 04:09:00,
2013-02-26 20:14:00,40.1,36.0,30.27,South,180,0.0,0.0,85,0.00,,---,0.04,VWS V14.01,2013-02-27 04:14:00,
2013-02-26 20:19:00,40.1,36.0,30.27,South,180,0.0,0.0,85,0.00,,---,0.04,VWS V14.01,2013-02-27 04:19:00,
2013-02-26 20:24:00,40.1,36.0,30.27,South,180,0.0,0.0,85,0.00,,---,0.04,VWS V14.01,2013-02-27 04:24:00,
2013-02-26 20:30:00,39.9,36.1,30.27,South,180,0.0,0.0,86,0.00,,---,0.04,VWS V14.01,2013-02-27 04:30:00,
2013-02-26 20:35:00,39.9,36.1,30.27,South,180,0.0,0.0,86,0.00,,---,0.04,VWS V14.01,2013-02-27 04:35:00,
2013-02-26 20:40:00,39.9,36.1,30.27,South,180,0.0,0.0,86,0.00,,---,0.04,VWS V14.01,2013-02-27 04:40:00,
2013-02-26 20:45:00,39.9,36.4,30.27,South,180,0.0,0.0,87,0.00,,---,0.04,VWS V14.01,2013-02-27 04:45:00,
2013-02-26 20:50:00,39.9,36.4,30.27,South,180,0.0,0.0,87,0.00,,---,0.04,VWS V14.01,2013-02-27 04:50:00,
2013-02-26 20:55:00,39.7,36.2,30.27,South,180,0.0,0.0,87,0.00,,---,0.04,VWS V14.01,2013-02-27 04:55:00,
2013-02-26 21:00:00,39.6,36.0,30.27,SSW,202,0.0,0.0,87,0.00,,---,0.04,VWS V14.01,2013-02-27 05:00:00,
2013-02-26 21:04:00,39.4,35.8,30.27,SSW,202,0.0,0.0,87,0.00,,---,0.04,VWS V14.01,2013-02-27 05:04:00,
2013-02-26 21:10:00,39.4,36.1,30.27,SSW,202,0.0,0.0,88,0.00,,---,0.04,VWS V14.01,2013-02-27 05:10:00,
2013-02-26 21:15:00,39.4,36.1,30.30,SSW,202,0.0,0.0,88,0.00,,---,0.04,VWS V14.01,2013-02-27 05:15:00,
2013-02-26 21:20:00,39.4,36.1,30.30,South,180,0.0,0.0,88,0.00,,---,0.04,VWS V14.01,2013-02-27 05:20:00,
2013-02-26 21:25:00,39.2,36.0,30.30,South,180,0.0,0.0,88,0.00,,---,0.04,VWS V14.01,2013-02-27 05:25:00,
2013-02-26 21:30:00,39.2,36.0,30.27,South,180,0.0,0.0,88,0.00,,---,0.04,VWS V14.01,2013-02-27 05:30:00,
2013-02-26 21:35:00,39.2,36.2,30.27,South,180,0.0,0.0,89,0.00,,---,0.04,VWS V14.01,2013-02-27 05:35:00,
2013-02-26 21:40:00,39.2,36.2,30.27,South,180,0.0,0.0,89,0.00,,---,0.04,VWS V14.01,2013-02-27 05:40:00,
2013-02-26 21:45:00,39.2,36.5,30.27,South,180,0.0,0.0,90,0.00,,---,0.04,VWS V14.01,2013-02-27 05:45:00,
2013-02-26 21:50:00,39.2,36.5,30.27,South,180,0.0,0.0,90,0.00,,---,0.04,VWS V14.01,2013-02-27 05:50:00,
2013-02-26 21:55:00,39.0,36.6,30.27,South,180,0.0,0.0,91,0.00,,---,0.04,VWS V14.01,2013-02-27 05:55:00,
2013-02-26 22:00:00,38.8,36.2,30.27,South,180,0.0,0.0,90,0.00,,---,0.04,VWS V14.01,2013-02-27 06:00:00,
2013-02-26 22:05:00,38.8,36.4,30.27,South,180,0.0,0.0,91,0.00,,---,0.04,VWS V14.01,2013-02-27 06:05:00,
2013-02-26 22:10:00,38.7,36.3,30.27,South,180,0.0,0.0,91,0.00,,---,0.04,VWS V14.01,2013-02-27 06:10:00,
2013-02-26 22:15:00,38.7,36.3,30.30,South,180,0.0,0.0,91,0.00,,---,0.04,VWS V14.01,2013-02-27 06:15:00,
2013-02-26 22:20:00,38.7,36.3,30.30,South,180,0.0,0.0,91,0.00,,---,0.04,VWS V14.01,2013-02-27 06:20:00,
2013-02-26 22:25:00,38.7,36.5,30.30,ESE,112,0.0,0.0,92,0.00,,---,0.04,VWS V14.01,2013-02-27 06:25:00,
2013-02-26 22:30:00,38.7,36.5,30.30,South,180,0.0,0.0,92,0.00,,---,0.04,VWS V14.01,2013-02-27 06:30:00,
2013-02-26 22:36:00,38.5,36.4,30.30,South,180,0.0,0.0,92,0.00,,---,0.04,VWS V14.01,2013-02-27 06:36:00,
2013-02-26 22:41:00,38.5,36.4,30.30,South,180,0.0,0.0,92,0.00,,---,0.04,VWS V14.01,2013-02-27 06:41:00,
2013-02-26 22:46:00,38.5,36.6,30.30,South,180,0.0,0.0,93,0.00,,---,0.04,VWS V14.01,2013-02-27 06:46:00,
2013-02-26 22:51:00,38.5,36.6,30.30,South,180,0.0,0.0,93,0.00,,---,0.04,VWS V14.01,2013-02-27 06:51:00,
2013-02-26 22:56:00,38.3,36.5,30.30,South,180,0.0,0.0,93,0.00,,---,0.04,VWS V14.01,2013-02-27 06:56:00,
2013-02-26 23:01:00,38.3,36.5,30.30,South,180,0.0,0.0,93,0.00,,---,0.04,VWS V14.01,2013-02-27 07:01:00,
2013-02-26 23:06:00,38.3,36.7,30.30,South,180,0.0,0.0,94,0.00,,---,0.04,VWS V14.01,2013-02-27 07:06:00,
2013-02-26 23:11:00,38.3,36.7,30.30,South,180,0.0,0.0,94,0.00,,---,0.04,VWS V14.01,2013-02-27 07:11:00,
2013-02-26 23:16:00,38.3,36.7,30.30,South,180,0.0,0.0,94,0.00,,---,0.04,VWS V14.01,2013-02-27 07:16:00,
2013-02-26 23:21:00,38.3,36.7,30.30,South,180,0.0,0.0,94,0.00,,---,0.04,VWS V14.01,2013-02-27 07:21:00,
2013-02-26 23:26:00,38.3,36.7,30.30,South,180,0.0,0.0,94,0.00,,---,0.04,VWS V14.01,2013-02-27 07:26:00,
2013-02-26 23:32:00,38.5,37.2,30.27,South,180,0.0,0.0,95,0.00,,---,0.04,VWS V14.01,2013-02-27 07:32:00,
2013-02-26 23:37:00,38.5,37.2,30.27,South,180,0.0,0.0,95,0.00,,---,0.04,VWS V14.01,2013-02-27 07:37:00,
2013-02-26 23:42:00,38.5,37.2,30.27,South,180,0.0,0.0,95,0.00,,---,0.04,VWS V14.01,2013-02-27 07:42:00,
2013-02-26 23:47:00,38.5,37.2,30.30,South,180,0.0,0.0,95,0.00,,---,0.04,VWS V14.01,2013-02-27 07:47:00,
2013-02-26 23:52:00,38.5,37.2,30.30,South,180,0.0,0.0,95,0.00,,---,0.00,VWS V14.01,2013-02-27 07:52:00,
2013-02-26 23:57:00,38.3,37.0,30.27,South,180,0.0,0.0,95,0.00,,---,0.00,VWS V14.01,2013-02-27 07:57:00,